This demonstration page uses our WeatherBlox Daily Observations layout. Learn more.

Left ArrowRight Arrow

44.31136, -96.79839

Hourly Observations for August 19, 2022

Temp ( °F °C ) Dew Point ( °F °C ) Humidity (%) Winds ( mph kmh ) Pressure ( in mb ) Visibility ( mi km ) Precip ( " mm )
12:56 am 00:56 Clear 59 15 58 14.4 96 96 Calm 29.90 1012 10 16 0.00 0.00
1:56 am 01:56 Clear 59 15 58 14.4 96 96 WNW 5 7 29.88 1012 10 16 0.00 0.00
2:56 am 02:56 Clear 59 15 59 15 100 100 NW 7 11 29.88 1012 10 16 0.00 0.00
3:56 am 03:56 Clear 57 13.9 57 13.9 100 100 WNW 6 9 29.88 1012 10 16 0.00 0.00
4:56 am 04:56 Mostly Clear 57 13.9 57 13.9 100 100 WNW 6 9 29.88 1012 10 16 0.00 0.00
5:56 am 05:56 Clear 58 14.4 58 14.4 100 100 W 5 7 29.87 1012 10 16 0.00 0.00
6:56 am 06:56 Sunny 57 13.9 57 13.9 100 100 W 6 9 29.88 1012 10 16 0.00 0.00
7:56 am 07:56 Partly Cloudy 61 16.1 58 14.4 90 90 WNW 10 17 29.88 1012 10 16 0.00 0.00
8:07 am 08:07 Mostly Cloudy 61 16 59 15 94 94 WNW 13 20 29.83 1010 10 16 0.00 0.00
8:56 am 08:56 Cloudy 61 16.1 60 15.6 97 97 WNW 13 20 29.88 1012 10 16 0.00 0.00
9:56 am 09:56 Cloudy 63 17.2 61 16.1 93 93 WNW 16 26 29.87 1012 10 16 0.00 0.00
10:56 am 10:56 Cloudy with Rain 62 16.7 62 16.7 100 100 W 15 24 29.86 1011 5 8 0.02 0.51
11:10 am 11:10 Cloudy with Mist and Fog 61 16 61 16 100 100 W 15 24 29.81 1010 3 4 0.04 1.02
11:12 am 11:12 Cloudy with Mist and Fog 61 16 61 16 100 100 W 16 26 29.80 1009 2 3 0.05 1.27
11:35 am 11:35 Cloudy with Mist and Fog 63 17 63 17 100 100 W 18 30 29.79 1009 3 4 0.12 3.05
11:42 am 11:42 Cloudy with Mist and Fog 63 17 63 17 100 100 W 18 30 29.79 1009 3 5 0.12 3.05
11:47 am 11:47 Cloudy with Mist and Fog 63 17 63 17 100 100 W 20 31 29.78 1008 2 3 0.14 3.56
12:00 pm 12:00 Cloudy with Mist and Fog 63 17 63 17 100 100 W 21 33 29.78 1008 3 5 0.00 0.00
12:26 pm 12:26 Cloudy with Mist and Fog 63 17 63 17 100 100 W 22 35 29.77 1008 2 2 0.03 0.76
12:41 pm 12:41 Cloudy with Mist and Fog 63 17 63 17 100 100 W 22 35 29.76 1008 2 3 0.08 2.03
12:51 pm 12:51 Cloudy with Mist and Fog 63 17 63 17 100 100 W 25 41 29.75 1007 1 2 0.10 2.54
12:56 pm 12:56 Cloudy with Mist and Fog 63 17.2 63 17.2 100 100 WNW 23 37 29.81 1010 1 2 0.13 3.30
1:03 pm 13:03 Cloudy with Fog 63 17 63 17 100 100 WNW 22 35 29.75 1007 1 1 0.09 2.29
1:16 pm 13:16 Cloudy with Mist and Fog 63 17 63 17 100 100 WNW 23 37 29.76 1008 1 2 0.15 3.81
1:18 pm 13:18 Cloudy with Mist and Fog 63 17 63 17 100 100 WNW 21 33 29.76 1008 2 3 0.15 3.81
1:26 pm 13:26 Cloudy 63 17 63 17 100 100 WNW 22 35 29.76 1008 10 16 0.15 3.81
1:42 pm 13:42 Cloudy with Mist and Fog 64 18 64 18 100 100 NW 22 35 29.75 1008 3 4 0.16 4.06
1:49 pm 13:49 Cloudy 64 18 64 18 100 100 NW 18 30 29.75 1008 10 16 0.16 4.06
1:56 pm 13:56 Cloudy 65 18.3 65 18.3 100 100 NNW 23 37 29.81 1010 7 11 0.16 4.06
2:29 pm 14:29 Cloudy 64 18 64 18 100 100 NNW 22 35 29.75 1008 8 13 0.00 0.00
2:42 pm 14:42 Cloudy with Rain 64 18 64 18 100 100 NW 15 24 29.75 1008 2 3 0.02 0.51
2:51 pm 14:51 Cloudy with Light Rain 66 19 66 19 100 100 NW 21 33 29.73 1007 6 10 0.03 0.76
2:56 pm 14:56 Cloudy with Light Rain 65 18.3 65 18.3 100 100 NNW 23 37 29.81 1010 7 11 0.03 0.76
3:56 pm 15:56 Cloudy 67 19.4 66 18.9 97 97 NNW 25 41 29.81 1010 9 14 0.01 0.13
4:37 pm 16:37 Cloudy with Mist and Fog 64 18 64 18 100 100 N 10 17 29.76 1008 3 5 0.00 0.00
4:56 pm 16:56 Mostly Cloudy 66 18.9 66 18.9 100 100 NNW 18 30 29.83 1010 10 16 0.00 0.00
5:10 pm 17:10 Mostly Sunny 68 20 64 18 88 88 NNW 17 28 29.75 1007 10 16 0.00 0.00
5:41 pm 17:41 Cloudy 66 19 66 19 100 100 NNW 14 22 29.77 1008 8 13 0.00 0.00
5:56 pm 17:56 Mostly Cloudy 69 20.6 66 18.9 90 90 NNW 17 28 29.83 1010 10 16 0.00 0.00
6:41 pm 18:41 Cloudy 72 22 66 19 83 83 NNW 12 19 29.76 1008 10 16 0.00 0.00
6:56 pm 18:56 Cloudy with Light Rain 68 20 66 18.9 93 93 N 14 22 29.85 1011 2 3 0.03 0.76
6:58 pm 18:58 Cloudy with Heavy Rain 66 19 66 19 100 100 N 14 22 29.78 1009 2 3 0.02 0.51
7:04 pm 19:04 Cloudy with Light Rain 64 18 64 18 100 100 N 13 20 29.79 1009 4 6 0.08 2.03
7:13 pm 19:13 Mostly Cloudy 64 18 64 18 100 100 N 8 13 29.79 1009 10 16 0.08 2.03
7:23 pm 19:23 Mostly Cloudy 64 18 64 18 100 100 N 8 13 29.79 1009 10 16 0.08 2.03
7:34 pm 19:34 Partly Cloudy 64 18 64 18 100 100 N 9 15 29.79 1009 10 16 0.08 2.03
7:56 pm 19:56 Partly Cloudy 65 18.3 65 18.3 100 100 N 6 9 29.87 1012 10 16 0.08 2.03
8:56 pm 20:56 Clear 62 16.7 62 16.7 100 100 N 7 11 29.89 1012 10 16 0.00 0.00
9:56 pm 21:56 Clear 61 16.1 61 16.1 100 100 N 6 9 29.92 1013 10 16 0.00 0.00
10:56 pm 22:56 Clear 60 15.6 N/A N/A N 6 9 29.93 1014 10 16 0.00 0.00
11:56 pm 23:56 Mostly Clear 60 15.6 N/A N/A Calm 29.95 1014 9 14 0.00 0.00

Powered by AerisWeather